Weather History for Montauk, NY

Change the Weather History Date:

Monday, July 22, 2013

  Actual Average (KHTO) Record (KHTO)
Temperature  
Mean Temperature 74 °F -  
Max Temperature 79 °F 81 °F 96 °F (1957)
Min Temperature 70 °F 64 °F 52 °F (1944)
Cooling Degree Days 9    
Growing Degree Days 24 (Base 50)    
Moisture  
Dew Point 70 °F    
Average Humidity 91    
Maximum Humidity 100    
Minimum Humidity 79    
Precipitation  
Precipitation 0.00 in - - ()
Sea Level Pressure  
Sea Level Pressure 29.95 in    
Wind  
Wind Speed 4 mph (ENE)    
Max Wind Speed 8 mph    
Max Gust Speed -    
Averages and records for this station are not official NWS values.
T = Trace of Precipitation, MM = Missing Value Source: NWS Daily Summary

Daily Weather History Graph

Daily Weather History Graph

Search for Another Location

Airport:

Trip Planner

Search our weather history database for the weather conditions in past years. The results will help you decide how hot, cold, wet, or windy it might be!

Date:

Astronomy

Jul. 22, 2013 Rise Set
Actual Time 5:34 AM EDT 8:13 PM EDT
Civil Twilight 5:02 AM EDT 8:45 PM EDT
Nautical Twilight 4:22 AM EDT 9:25 PM EDT
Astronomical Twilight 3:37 AM EDT 10:10 PM EDT
Moon 7:56 PM EDT (7/22) 5:27 AM EDT (7/22)
Length of Visible Light 15h 42m
Length of Day
14h 39m
Full, 100% of the Moon is Illuminated
Jul 22
Full
Jul 22
Full
Jul 29
Last Quarter
Aug 6
New
Aug 14
First Quarter

Hourly Weather History & Observations

Time (EDT) Temp. Dew Point Humidity Pressure Visibility Wind Dir Wind Speed Gust Speed Precip Events Conditions
12:54 AM 71.1 °F 69.1 °F 93% 29.99 in - NE 4.6 mph - N/A   Unknown
1:54 AM 71.1 °F 70.0 °F 96% 29.98 in - Calm Calm - N/A   Unknown
2:54 AM 71.1 °F 69.1 °F 93% 29.97 in - NNE 4.6 mph - N/A   Unknown
3:54 AM 70.0 °F 68.0 °F 93% 29.96 in - ENE 3.5 mph - N/A   Unknown
4:54 AM 70.0 °F 68.0 °F 93% 29.97 in - East 3.5 mph - N/A   Unknown
5:54 AM 71.1 °F 70.0 °F 96% 29.98 in - ESE 3.5 mph - N/A   Unknown
6:54 AM 71.1 °F 69.1 °F 93% 29.98 in - NNE 3.5 mph - N/A   Unknown
7:54 AM 71.1 °F 69.1 °F 93% 29.99 in - ENE 4.6 mph - N/A   Unknown
8:54 AM 75.0 °F 70.0 °F 84% 29.98 in - Calm Calm - N/A   Unknown
9:54 AM 73.0 °F 68.0 °F 84% 29.99 in - NE 5.8 mph - N/A   Unknown
10:54 AM 73.0 °F 69.1 °F 87% 29.99 in - ENE 5.8 mph - N/A   Unknown
11:54 AM 75.0 °F 70.0 °F 84% 29.99 in - ENE 5.8 mph - N/A   Unknown
12:54 PM 75.9 °F 69.1 °F 79% 29.97 in - ENE 8.1 mph - N/A   Unknown
1:54 PM 78.1 °F 71.1 °F 79% 29.96 in - ENE 6.9 mph - N/A   Unknown
2:54 PM 75.0 °F 70.0 °F 84% 29.96 in - Variable 5.8 mph - N/A   Unknown
3:54 PM 73.9 °F 70.0 °F 87% 29.94 in - Variable 5.8 mph - N/A   Unknown
4:54 PM 73.0 °F 70.0 °F 90% 29.93 in - ENE 6.9 mph - N/A   Unknown
5:54 PM 71.1 °F 69.1 °F 93% 29.91 in - ENE 5.8 mph - N/A   Unknown
6:54 PM 72.0 °F 71.1 °F 97% 29.90 in - ENE 4.6 mph - N/A   Unknown
7:54 PM 71.1 °F 70.0 °F 96% 29.89 in - NE 4.6 mph - N/A   Unknown
8:54 PM 70.0 °F 70.0 °F 100% 29.90 in - ENE 5.8 mph - N/A   Unknown
9:54 PM 70.0 °F 70.0 °F 100% 29.88 in - ENE 6.9 mph - N/A   Unknown
10:54 PM 71.1 °F 71.1 °F 100% 29.88 in - East 5.8 mph - N/A   Unknown
11:54 PM 72.0 °F 71.1 °F 97% 29.87 in - East 4.6 mph - N/A   Unknown